Flag for Germany Weather past 2 weeks in Offenburg, Baden-Württemberg, Germany

Now
79 °F

Sunny.


Feels Like: 80 °F
Forecast: 54 / 75 °F
Wind: 3 mph from West

Location: Lahr - CAN-AFB

Current Time: Jul 25, 2014 at 2:08:08 PM

Latest Report: Jul 25, 2014 at 1:20 PM


Visibility: 10 mi

Pressure: 29.89 "Hg

Humidity: 54%

Dew point: 61 °F

Location of OffenburgLocation

Historic Weather in Offenburg — Graph

°F

Offenburg temperature yesterday

Maximum temperature yesterday: 82 °F (at 4:20 PM)
Minimum temperature yesterday: 70 °F (at 9:50 AM)
Average temperature yesterday: 80 °F

Past Weeks' High & Low Weather Summary

 TemperatureHumidityPressure
High93 °F (Jul 19, 5:20 PM)100% (Jul 21, 8:20 AM)30.18 "Hg (Jul 21, 8:20 AM)
Low59 °F (Jul 15, 7:50 AM)26% (Jul 18, 4:20 PM)29.80 "Hg (Jul 19, 9:50 PM)
Average74 °F64%29.98 "Hg
* Reported Jul 10 12:20 PM — Jul 25 12:50 PM, Offenburg, Weather by CustomWeather, © 2014

Note: Actual official high and low records may vary slightly from our data, if they occured in-between our weather recording intervals... More about our weather records

Advertising

Offenburg weather history for previous 24 hours

 ConditionsComfort  
Time TempWeatherWind HumidityBarometerVisibility
12:50 PM
Jul 25
77 °FSunny.3 mph51%29.89 "Hg10 mi
12:20 PM75 °FSunny.3 mph61%29.89 "Hg10 mi
11:50 AM73 °FSunny.3 mph57%29.92 "Hg10 mi
11:20 AM73 °FSunny.5 mph57%29.92 "Hg10 mi
10:50 AM72 °FSunny.1 mph65%29.92 "Hg10 mi
10:20 AM70 °FSunny.2 mph69%29.92 "Hg10 mi
9:50 AM68 °FSunny.3 mph73%29.92 "Hg10 mi
9:20 AM66 °FSunny.2 mph73%29.92 "Hg10 mi
8:50 AM68 °FPassing clouds.3 mph73%29.92 "HgN/A
8:20 AM64 °FPassing clouds.5 mph78%29.92 "HgN/A
7:50 AM64 °FPassing clouds.3 mph78%29.92 "HgN/A
7:50 PM
Jul 24
79 °FSunny.5 mph45%29.86 "Hg10 mi
7:20 PM81 °FSunny.3 mph39%29.86 "Hg10 mi
6:50 PM81 °FPassing clouds.5 mph42%29.86 "HgN/A
6:20 PM81 °FPassing clouds.7 mph42%29.86 "HgN/A
5:50 PM81 °FSunny.8 mph42%29.86 "Hg10 mi
5:20 PM81 °FSunny.9 mph37%29.86 "Hg10 mi
4:50 PM81 °FSunny.9 mph37%29.86 "Hg10 mi
4:20 PM82 °FSunny.9 mph40%29.89 "Hg10 mi
3:50 PM81 °FSunny.7 mph42%29.89 "Hg10 mi
3:20 PM81 °FPassing clouds.10 mph39%29.89 "HgN/A
2:50 PM79 °FPassing clouds.12 mph42%29.86 "HgN/A
2:20 PM81 °FPassing clouds.12 mph45%29.89 "HgN/A
Weather by CustomWeather, © 2014

See weather overviewHow to use our weather pages